JA013C RJCB-RJCB

Flight info

Callsign JA013C
Flight time 0h 27m
Altitude 0000
Route LCL
Aircraft SR22/L-SDLOV/LB1

Departure

Time 2026-04-29 05:16
Airport Tokachi-Obihiro Airport (RJCB)

Arrival

Time 2026-04-29 05:43
Airport Tokachi-Obihiro Airport (RJCB)
Time Latitude Longitude Altitude Speed Heading
2026-04-29 05:12 42.73659 143.21157 484 ft 0 kts 339°
2026-04-29 05:14 42.73661 143.21191 481 ft 9 kts 110°
2026-04-29 05:14 42.73675 143.21262 481 ft 14 kts 70°
2026-04-29 05:14 42.73718 143.21414 484 ft 7 kts 68°
2026-04-29 05:15 42.73734 143.21472 484 ft 13 kts 69°
2026-04-29 05:15 42.73712 143.21561 484 ft 1 kts 158°
2026-04-29 05:15 42.73610 143.21613 484 ft 50 kts 159°
2026-04-29 05:15 42.73103 143.21874 541 ft 94 kts 161°
2026-04-29 05:16 42.72508 143.22182 872 ft 93 kts 159°
2026-04-29 05:16 42.71886 143.22527 1194 ft 101 kts 159°
2026-04-29 05:16 42.71228 143.22879 1426 ft 106 kts 161°
2026-04-29 05:16 42.70525 143.23258 1464 ft 111 kts 159°
2026-04-29 05:17 42.69909 143.23845 1490 ft 115 kts 112°
2026-04-29 05:17 42.70048 143.24909 1499 ft 122 kts 69°
2026-04-29 05:17 42.70375 143.25972 1430 ft 121 kts 66°
2026-04-29 05:17 42.71033 143.26441 1460 ft 110 kts 343°
2026-04-29 05:18 42.71735 143.26063 1450 ft 111 kts 338°
2026-04-29 05:18 42.72479 143.25678 1398 ft 117 kts 337°
2026-04-29 05:18 42.73247 143.25269 1380 ft 119 kts 338°
2026-04-29 05:18 42.74017 143.24886 1393 ft 116 kts 339°
2026-04-29 05:19 42.74774 143.24519 1430 ft 114 kts 339°
2026-04-29 05:19 42.75504 143.24161 1447 ft 105 kts 339°
2026-04-29 05:19 42.76159 143.23838 1378 ft 97 kts 340°
2026-04-29 05:19 42.76784 143.23532 1256 ft 95 kts 338°
2026-04-29 05:20 42.77383 143.23189 1168 ft 91 kts 311°
2026-04-29 05:20 42.77411 143.22408 1101 ft 86 kts 249°
2026-04-29 05:20 42.77211 143.21689 1052 ft 79 kts 246°
2026-04-29 05:20 42.77016 143.21011 1005 ft 75 kts 248°
2026-04-29 05:21 42.76746 143.20447 961 ft 74 kts 205°
2026-04-29 05:21 42.76230 143.20401 895 ft 77 kts 173°
2026-04-29 05:21 42.75709 143.20558 809 ft 77 kts 163°
2026-04-29 05:21 42.75203 143.20803 720 ft 77 kts 160°
2026-04-29 05:22 42.74699 143.21058 612 ft 77 kts 161°
2026-04-29 05:22 42.74194 143.21315 492 ft 77 kts 161°
2026-04-29 05:22 42.73747 143.21541 481 ft 65 kts 159°
2026-04-29 05:22 42.73202 143.21829 640 ft 88 kts 159°
2026-04-29 05:23 42.72640 143.22123 999 ft 86 kts 160°
2026-04-29 05:23 42.72045 143.22427 1301 ft 97 kts 160°
2026-04-29 05:23 42.71392 143.22791 1386 ft 108 kts 158°
2026-04-29 05:23 42.70671 143.23199 1416 ft 114 kts 158°
2026-04-29 05:24 42.69980 143.23693 1386 ft 116 kts 130°
2026-04-29 05:24 42.69967 143.24710 1321 ft 114 kts 68°
2026-04-29 05:24 42.70252 143.25736 1336 ft 116 kts 70°
2026-04-29 05:24 42.70779 143.26480 1365 ft 117 kts
2026-04-29 05:25 42.71544 143.26195 1429 ft 115 kts 336°
2026-04-29 05:25 42.72286 143.25797 1449 ft 115 kts 337°
2026-04-29 05:25 42.73049 143.25411 1416 ft 120 kts 339°
2026-04-29 05:25 42.73815 143.25018 1381 ft 116 kts 338°
2026-04-29 05:26 42.74568 143.24642 1362 ft 114 kts 339°
2026-04-29 05:26 42.75303 143.24289 1364 ft 110 kts 340°
2026-04-29 05:26 42.75975 143.23966 1322 ft 97 kts 339°
2026-04-29 05:26 42.76581 143.23653 1265 ft 93 kts 338°
2026-04-29 05:27 42.77194 143.23347 1229 ft 93 kts 339°
2026-04-29 05:27 42.77225 143.21836 1247 ft 86 kts 248°
2026-04-29 05:27 42.77016 143.21080 1144 ft 85 kts 248°
2026-04-29 05:28 42.76777 143.20365 1075 ft 84 kts 223°
2026-04-29 05:28 42.76233 143.20295 965 ft 85 kts 163°
2026-04-29 05:28 42.75684 143.20568 835 ft 84 kts 162°
2026-04-29 05:28 42.75132 143.20834 698 ft 85 kts 161°
2026-04-29 05:29 42.74584 143.21116 584 ft 83 kts 160°
2026-04-29 05:29 42.74051 143.21388 476 ft 78 kts 161°
2026-04-29 05:29 42.73601 143.21613 487 ft 67 kts 157°
2026-04-29 05:29 42.73066 143.21897 537 ft 95 kts 160°
2026-04-29 05:30 42.72502 143.22189 970 ft 83 kts 158°
2026-04-29 05:30 42.71935 143.22513 1348 ft 90 kts 157°
2026-04-29 05:30 42.71306 143.22880 1385 ft 105 kts 158°
2026-04-29 05:30 42.70613 143.23283 1440 ft 111 kts 159°
2026-04-29 05:31 42.69936 143.23797 1428 ft 117 kts 124°
2026-04-29 05:31 42.69953 143.24826 1445 ft 114 kts 69°
2026-04-29 05:31 42.70237 143.25857 1405 ft 118 kts 71°
2026-04-29 05:31 42.70836 143.26487 1402 ft 118 kts 355°
2026-04-29 05:32 42.71610 143.26157 1427 ft 118 kts 339°
2026-04-29 05:32 42.72391 143.25768 1397 ft 120 kts 338°
2026-04-29 05:32 42.73178 143.25379 1390 ft 120 kts 338°
2026-04-29 05:32 42.73962 143.24993 1394 ft 119 kts 339°
2026-04-29 05:33 42.74736 143.24621 1404 ft 120 kts 340°
2026-04-29 05:33 42.75518 143.24231 1395 ft 117 kts 337°
2026-04-29 05:33 42.76244 143.23859 1362 ft 106 kts 338°
2026-04-29 05:33 42.76916 143.23517 1251 ft 99 kts 338°
2026-04-29 05:34 42.77468 143.23078 1143 ft 92 kts 289°
2026-04-29 05:34 42.77353 143.22271 1047 ft 88 kts 250°
2026-04-29 05:34 42.77157 143.21545 1025 ft 79 kts 249°
2026-04-29 05:34 42.76973 143.20857 991 ft 76 kts 249°
2026-04-29 05:35 42.76712 143.20259 970 ft 76 kts 206°
2026-04-29 05:35 42.76190 143.20320 899 ft 80 kts 163°
2026-04-29 05:35 42.75670 143.20569 802 ft 80 kts 161°
2026-04-29 05:35 42.75146 143.20828 696 ft 80 kts 159°
2026-04-29 05:36 42.74629 143.21089 583 ft 80 kts 161°
2026-04-29 05:36 42.74113 143.21355 486 ft 78 kts 161°
2026-04-29 05:36 42.73670 143.21584 485 ft 63 kts 160°
2026-04-29 05:36 42.73129 143.21855 581 ft 93 kts 162°
2026-04-29 05:37 42.72560 143.22176 944 ft 91 kts 158°
2026-04-29 05:37 42.71927 143.22531 1306 ft 98 kts 159°
2026-04-29 05:37 42.71263 143.22873 1366 ft 106 kts 159°
2026-04-29 05:37 42.70570 143.23248 1384 ft 111 kts 159°
2026-04-29 05:38 42.69911 143.23782 1365 ft 115 kts 118°
2026-04-29 05:38 42.70013 143.24806 1386 ft 114 kts 68°
2026-04-29 05:38 42.70313 143.25827 1389 ft 117 kts 69°
2026-04-29 05:38 42.70905 143.26455 1427 ft 118 kts 357°
2026-04-29 05:39 42.71689 143.26123 1449 ft 119 kts 339°
2026-04-29 05:39 42.72485 143.25726 1405 ft 124 kts 339°
2026-04-29 05:39 42.73297 143.25315 1385 ft 125 kts 339°
2026-04-29 05:39 42.74123 143.24900 1362 ft 126 kts 338°
2026-04-29 05:40 42.74946 143.24495 1396 ft 124 kts 340°
2026-04-29 05:40 42.75704 143.24129 1431 ft 104 kts 339°
2026-04-29 05:40 42.76362 143.23807 1352 ft 96 kts 337°
2026-04-29 05:40 42.76980 143.23509 1253 ft 92 kts 339°
2026-04-29 05:41 42.77493 143.23024 1134 ft 94 kts 284°
2026-04-29 05:41 42.77339 143.22221 1133 ft 89 kts 249°
2026-04-29 05:41 42.77131 143.21477 1119 ft 83 kts 251°
2026-04-29 05:41 42.76947 143.20732 1070 ft 83 kts 250°
2026-04-29 05:42 42.76571 143.20213 1022 ft 82 kts 189°
2026-04-29 05:42 42.76003 143.20398 908 ft 84 kts 163°
2026-04-29 05:42 42.75452 143.20672 756 ft 83 kts 160°
2026-04-29 05:42 42.74904 143.20953 642 ft 84 kts 160°
2026-04-29 05:43 42.74361 143.21228 529 ft 83 kts 161°
2026-04-29 05:43 42.73854 143.21486 477 ft 67 kts 158°
2026-04-29 05:43 42.73480 143.21681 486 ft 48 kts 161°
2026-04-29 05:43 42.73324 143.21604 491 ft 17 kts 248°
2026-04-29 05:44 42.73385 143.21489 494 ft 19 kts 347°
2026-04-29 05:44 42.73521 143.21418 486 ft 24 kts 340°
2026-04-29 05:44 42.73655 143.21349 484 ft 13 kts 342°
2026-04-29 05:44 42.73670 143.21241 484 ft 16 kts 249°
2026-04-29 05:45 42.73652 143.21142 484 ft 7 kts 322°
2026-04-29 05:45 42.73683 143.21127 483 ft 0 kts 338°